VIA003 SVMI-SEQM

Flight info

Callsign VIA003
Flight time 2h 35m
Altitude 36000
Route MARES1 MARES A315 ATONO G427 PBL/N0491F360 UP533 BOKAN/N0488F370 UP533 QIT
Aircraft MD11/H-SDE1E2E3FGHIJ2J3J4J5M1RWXYZ/LB1D1

Departure

Time 2026-04-28 14:30
Airport Maiquetía Simón Bolívar International Airport (SVMI)

Arrival

Time 2026-04-28 17:05
Airport Mariscal Sucre International Airport (SEQM)
Time Latitude Longitude Altitude Speed Heading
2026-04-28 13:52 10.59823 -67.00843 309 ft 0 kts 178°
2026-04-28 14:22 10.59837 -67.00843 310 ft 2 kts 178°
2026-04-28 14:23 10.59852 -67.00844 310 ft 2 kts 178°
2026-04-28 14:23 10.59867 -67.00845 309 ft 2 kts 178°
2026-04-28 14:23 10.59882 -67.00845 309 ft 2 kts 178°
2026-04-28 14:23 10.59897 -67.00843 309 ft 2 kts 214°
2026-04-28 14:24 10.59905 -67.00833 310 ft 2 kts 248°
2026-04-28 14:24 10.59907 -67.00827 311 ft 0 kts 265°
2026-04-28 14:24 10.59907 -67.00821 312 ft 0 kts 268°
2026-04-28 14:26 10.59907 -67.00827 312 ft 2 kts 268°
2026-04-28 14:26 10.59906 -67.00858 311 ft 6 kts 268°
2026-04-28 14:26 10.59904 -67.00895 310 ft 9 kts 268°
2026-04-28 14:26 10.59900 -67.01008 306 ft 14 kts 268°
2026-04-28 14:27 10.59896 -67.01126 302 ft 18 kts 268°
2026-04-28 14:27 10.59905 -67.01223 298 ft 9 kts 313°
2026-04-28 14:27 10.59968 -67.01246 297 ft 0 kts 354°
2026-04-28 14:28 10.59979 -67.01247 297 ft 4 kts 355°
2026-04-28 14:28 10.60042 -67.01251 297 ft 13 kts 356°
2026-04-28 14:28 10.60107 -67.01254 297 ft 0 kts 359°
2026-04-28 14:28 10.60129 -67.01254 297 ft 6 kts 359°
2026-04-28 14:29 10.60195 -67.01247 298 ft 8 kts 37°
2026-04-28 14:29 10.60213 -67.01205 299 ft 11 kts 79°
2026-04-28 14:29 10.60216 -67.01069 303 ft 32 kts 88°
2026-04-28 14:29 10.60233 -67.00569 315 ft 108 kts 88°
2026-04-28 14:30 10.60264 -66.99557 296 ft 175 kts 89°
2026-04-28 14:30 10.60277 -66.98258 731 ft 187 kts 92°
2026-04-28 14:30 10.60308 -66.96991 1433 ft 182 kts 75°
2026-04-28 14:30 10.61006 -66.95946 2007 ft 188 kts 38°
2026-04-28 14:31 10.62312 -66.95480 2303 ft 216 kts
2026-04-28 14:31 10.63856 -66.95868 2558 ft 246 kts 333°
2026-04-28 14:31 10.65138 -66.97141 2916 ft 267 kts 302°
2026-04-28 14:31 10.65707 -66.98947 3393 ft 278 kts 276°
2026-04-28 14:32 10.65766 -67.00942 3930 ft 288 kts 269°
2026-04-28 14:32 10.65816 -67.03010 4819 ft 292 kts 274°
2026-04-28 14:32 10.66074 -67.05022 5761 ft 294 kts 285°
2026-04-28 14:32 10.66914 -67.06890 6670 ft 293 kts 305°
2026-04-28 14:33 10.68173 -67.08525 7415 ft 299 kts 313°
2026-04-28 14:33 10.69615 -67.10103 8185 ft 305 kts 315°
2026-04-28 14:33 10.71073 -67.11678 8942 ft 311 kts 314°
2026-04-28 14:33 10.72511 -67.13313 9815 ft 317 kts 312°
2026-04-28 14:34 10.75357 -67.16797 11384 ft 322 kts 309°
2026-04-28 14:34 10.76764 -67.18574 12142 ft 324 kts 309°
2026-04-28 14:34 10.77701 -67.19757 12621 ft 326 kts 309°
2026-04-28 14:35 10.79614 -67.22173 13557 ft 329 kts 308°
2026-04-28 14:35 10.81010 -67.24031 14216 ft 331 kts 306°
2026-04-28 14:35 10.82385 -67.25919 14873 ft 334 kts 306°
2026-04-28 14:35 10.83738 -67.27780 15792 ft 323 kts 306°
2026-04-28 14:36 10.85062 -67.29580 16539 ft 319 kts 307°
2026-04-28 14:36 10.86398 -67.31370 17163 ft 318 kts 307°
2026-04-28 14:36 10.87748 -67.33176 17707 ft 319 kts 307°
2026-04-28 14:36 10.89075 -67.34962 18222 ft 321 kts 306°
2026-04-28 14:37 10.90418 -67.36778 18725 ft 323 kts 306°
2026-04-28 14:37 10.91327 -67.38007 19061 ft 324 kts 306°
2026-04-28 14:37 10.93140 -67.40442 19694 ft 327 kts 306°
2026-04-28 14:37 10.94527 -67.42300 20158 ft 329 kts 306°
2026-04-28 14:38 10.95913 -67.44164 20625 ft 330 kts 306°
2026-04-28 14:38 10.97166 -67.46111 21042 ft 329 kts 290°
2026-04-28 14:38 10.97615 -67.47570 21371 ft 325 kts 276°
2026-04-28 14:38 10.97338 -67.50553 21888 ft 319 kts 245°
2026-04-28 14:39 10.96640 -67.51887 22022 ft 323 kts 232°
2026-04-28 14:39 10.94551 -67.54209 22151 ft 347 kts 223°
2026-04-28 14:39 10.92762 -67.55983 22214 ft 369 kts 225°
2026-04-28 14:39 10.90945 -67.57903 22294 ft 390 kts 227°
2026-04-28 14:40 10.89058 -67.60038 22379 ft 412 kts 228°
2026-04-28 14:40 10.88448 -67.60747 22405 ft 419 kts 229°
2026-04-28 14:40 10.85127 -67.64668 22591 ft 454 kts 229°
2026-04-28 14:40 10.83034 -67.67155 22717 ft 473 kts 229°
2026-04-28 14:41 10.80844 -67.69738 23094 ft 486 kts 229°
2026-04-28 14:41 10.78594 -67.72377 23698 ft 493 kts 228°
2026-04-28 14:41 10.76337 -67.75024 24371 ft 498 kts 228°
2026-04-28 14:41 10.74062 -67.77688 25059 ft 502 kts 228°
2026-04-28 14:42 10.71785 -67.80353 25723 ft 506 kts 228°
2026-04-28 14:42 10.70247 -67.82161 26178 ft 509 kts 228°
2026-04-28 14:42 10.67153 -67.85802 27326 ft 508 kts 227°
2026-04-28 14:42 10.64846 -67.88500 28258 ft 505 kts 227°
2026-04-28 14:43 10.62559 -67.91176 29245 ft 501 kts 227°
2026-04-28 14:43 10.60281 -67.93848 30201 ft 498 kts 228°
2026-04-28 14:43 10.58038 -67.96487 31184 ft 493 kts 229°
2026-04-28 14:43 10.55812 -67.99103 32101 ft 489 kts 229°
2026-04-28 14:44 10.54318 -68.00857 32710 ft 486 kts 229°
2026-04-28 14:44 10.52118 -68.03436 33608 ft 482 kts 229°
2026-04-28 14:44 10.49901 -68.06041 34443 ft 478 kts 230°
2026-04-28 14:44 10.46987 -68.09457 35373 ft 475 kts 230°
2026-04-28 14:45 10.44789 -68.11968 35926 ft 475 kts 229°
2026-04-28 14:45 10.40432 -68.16966 35931 ft 469 kts 230°
2026-04-28 14:46 10.36846 -68.21109 36020 ft 466 kts 230°
2026-04-28 14:46 10.31829 -68.26873 36069 ft 468 kts 230°
2026-04-28 14:47 10.28242 -68.31010 36085 ft 468 kts 230°
2026-04-28 14:47 10.23215 -68.36794 36109 ft 467 kts 230°
2026-04-28 14:48 10.18903 -68.41766 36108 ft 467 kts 230°
2026-04-28 14:48 10.15298 -68.45915 36108 ft 467 kts 230°
2026-04-28 14:49 10.10297 -68.51677 36109 ft 467 kts 230°
2026-04-28 14:49 10.06696 -68.55827 36102 ft 467 kts 230°
2026-04-28 14:50 10.02396 -68.60781 36097 ft 467 kts 230°
2026-04-28 14:50 9.97359 -68.66581 36091 ft 468 kts 230°
2026-04-28 14:51 9.93755 -68.70712 36085 ft 467 kts 230°
2026-04-28 14:51 9.89460 -68.75667 36073 ft 468 kts 230°
2026-04-28 14:52 9.84444 -68.81427 36063 ft 467 kts 230°
2026-04-28 14:52 9.80838 -68.85584 36053 ft 467 kts 230°
2026-04-28 14:53 9.76539 -68.90520 36037 ft 467 kts 230°
2026-04-28 14:53 9.72252 -68.95465 36027 ft 467 kts 230°
2026-04-28 14:54 9.67975 -69.00375 36019 ft 467 kts 230°
2026-04-28 14:54 9.63675 -69.05338 36010 ft 467 kts 230°
2026-04-28 14:55 9.59398 -69.10249 36005 ft 468 kts 230°
2026-04-28 14:55 9.54349 -69.16026 35998 ft 468 kts 230°
2026-04-28 14:56 9.50775 -69.20125 35995 ft 468 kts 230°
2026-04-28 14:56 9.46442 -69.25088 35995 ft 468 kts 230°
2026-04-28 14:57 9.41415 -69.30853 35996 ft 468 kts 230°
2026-04-28 14:57 9.37816 -69.34971 36006 ft 468 kts 230°
2026-04-28 14:58 9.32799 -69.40735 36009 ft 468 kts 230°
2026-04-28 14:58 9.28494 -69.45666 36011 ft 467 kts 230°
2026-04-28 14:59 9.24934 -69.49760 36010 ft 468 kts 230°
2026-04-28 14:59 9.20594 -69.54724 36001 ft 469 kts 230°
2026-04-28 15:00 9.15569 -69.60503 35988 ft 469 kts 230°
2026-04-28 15:00 9.11972 -69.64619 35993 ft 469 kts 230°
2026-04-28 15:01 9.07648 -69.69594 35992 ft 469 kts 230°
2026-04-28 15:01 9.03309 -69.74516 35988 ft 468 kts 230°
2026-04-28 15:02 8.99021 -69.79427 35990 ft 467 kts 230°
2026-04-28 15:02 8.94705 -69.84339 35999 ft 468 kts 230°
2026-04-28 15:03 8.90375 -69.89288 36002 ft 469 kts 230°
2026-04-28 15:03 8.85332 -69.95036 36005 ft 469 kts 230°
2026-04-28 15:04 8.80998 -69.99989 36013 ft 469 kts 230°
2026-04-28 15:04 8.77397 -70.04100 36018 ft 468 kts 230°
2026-04-28 15:05 8.73080 -70.09027 36027 ft 468 kts 230°
2026-04-28 15:05 8.68745 -70.13975 36024 ft 468 kts 230°
2026-04-28 15:06 8.64431 -70.18908 36034 ft 469 kts 230°
2026-04-28 15:06 8.60101 -70.23825 36032 ft 469 kts 229°
2026-04-28 15:07 8.55654 -70.28645 36039 ft 469 kts 229°
2026-04-28 15:07 8.51231 -70.33492 36044 ft 470 kts 229°
2026-04-28 15:08 8.46819 -70.38333 36040 ft 470 kts 229°
2026-04-28 15:08 8.42361 -70.43211 36033 ft 470 kts 229°
2026-04-28 15:09 8.37924 -70.48073 36028 ft 471 kts 229°
2026-04-28 15:09 8.33475 -70.52942 36024 ft 471 kts 229°
2026-04-28 15:10 8.28292 -70.58622 36023 ft 472 kts 229°
2026-04-28 15:10 8.24585 -70.62676 36019 ft 472 kts 229°
2026-04-28 15:11 8.20131 -70.67565 36025 ft 472 kts 229°
2026-04-28 15:11 8.15693 -70.72421 36026 ft 471 kts 229°
2026-04-28 15:12 8.11227 -70.77322 36034 ft 471 kts 229°
2026-04-28 15:12 8.06786 -70.82190 36034 ft 471 kts 229°
2026-04-28 15:13 8.02328 -70.87065 36031 ft 472 kts 228°
2026-04-28 15:13 7.97848 -70.91933 36016 ft 471 kts 228°
2026-04-28 15:14 7.93407 -70.96790 36010 ft 472 kts 228°
2026-04-28 15:14 7.88903 -71.01678 36007 ft 472 kts 228°
2026-04-28 15:15 7.84446 -71.06556 36010 ft 472 kts 229°
2026-04-28 15:15 7.79969 -71.11421 36012 ft 472 kts 229°
2026-04-28 15:16 7.75540 -71.16265 36017 ft 471 kts 229°
2026-04-28 15:16 7.71074 -71.21123 36021 ft 471 kts 229°
2026-04-28 15:17 7.66629 -71.25981 36029 ft 471 kts 229°
2026-04-28 15:17 7.62184 -71.30824 36030 ft 471 kts 229°
2026-04-28 15:18 7.57731 -71.35686 36034 ft 471 kts 229°
2026-04-28 15:18 7.53274 -71.40546 36031 ft 471 kts 229°
2026-04-28 15:19 7.48843 -71.45381 36037 ft 472 kts 229°
2026-04-28 15:19 7.44386 -71.50228 36039 ft 472 kts 228°
2026-04-28 15:20 7.39916 -71.55070 36037 ft 471 kts 229°
2026-04-28 15:20 7.35451 -71.59935 36038 ft 471 kts 229°
2026-04-28 15:21 7.30991 -71.64766 36046 ft 472 kts 229°
2026-04-28 15:21 7.26535 -71.69624 36047 ft 472 kts 229°
2026-04-28 15:22 7.22053 -71.74477 36044 ft 472 kts 229°
2026-04-28 15:22 7.17612 -71.79316 36043 ft 471 kts 229°
2026-04-28 15:23 7.13145 -71.84164 36043 ft 472 kts 229°
2026-04-28 15:23 7.08685 -71.89016 36041 ft 473 kts 229°
2026-04-28 15:24 7.04192 -71.93896 36047 ft 473 kts 229°
2026-04-28 15:24 6.99602 -71.98666 36043 ft 474 kts 226°
2026-04-28 15:25 6.94841 -72.03233 36041 ft 474 kts 225°
2026-04-28 15:25 6.90091 -72.07806 36062 ft 473 kts 225°
2026-04-28 15:26 6.85305 -72.12436 36113 ft 473 kts 225°
2026-04-28 15:26 6.80526 -72.17035 36161 ft 473 kts 225°
2026-04-28 15:27 6.75789 -72.21605 36237 ft 473 kts 225°
2026-04-28 15:27 6.71040 -72.26177 36335 ft 473 kts 225°
2026-04-28 15:28 6.66298 -72.30750 36398 ft 472 kts 225°
2026-04-28 15:28 6.61538 -72.35338 36447 ft 472 kts 225°
2026-04-28 15:29 6.56790 -72.39912 36471 ft 471 kts 225°
2026-04-28 15:29 6.52072 -72.44463 36468 ft 470 kts 225°
2026-04-28 15:30 6.47358 -72.49005 36462 ft 470 kts 225°
2026-04-28 15:30 6.42622 -72.53576 36466 ft 471 kts 225°
2026-04-28 15:31 6.37892 -72.58127 36483 ft 471 kts 225°
2026-04-28 15:31 6.33152 -72.62682 36514 ft 471 kts 225°
2026-04-28 15:32 6.28374 -72.67263 36540 ft 471 kts 225°
2026-04-28 15:32 6.23651 -72.71807 36589 ft 470 kts 225°
2026-04-28 15:33 6.18903 -72.76356 36592 ft 470 kts 225°
2026-04-28 15:33 6.14187 -72.80896 36567 ft 470 kts 225°
2026-04-28 15:34 6.09443 -72.85438 36558 ft 470 kts 225°
2026-04-28 15:34 6.04713 -72.89996 36558 ft 470 kts 225°
2026-04-28 15:35 5.99993 -72.94514 36582 ft 471 kts 225°
2026-04-28 15:35 5.92885 -73.01356 36613 ft 471 kts 225°
2026-04-28 15:36 5.88119 -73.05921 36596 ft 470 kts 225°
2026-04-28 15:36 5.83398 -73.10471 36570 ft 470 kts 225°
2026-04-28 15:37 5.78667 -73.15006 36546 ft 470 kts 225°
2026-04-28 15:37 5.73909 -73.19569 36530 ft 470 kts 225°
2026-04-28 15:38 5.69176 -73.24088 36521 ft 471 kts 225°
2026-04-28 15:38 5.64445 -73.28631 36509 ft 471 kts 225°
2026-04-28 15:39 5.59664 -73.33191 36506 ft 471 kts 225°
2026-04-28 15:39 5.54941 -73.37730 36500 ft 470 kts 225°
2026-04-28 15:40 5.50191 -73.42261 36500 ft 471 kts 225°
2026-04-28 15:40 5.45449 -73.46813 36494 ft 471 kts 225°
2026-04-28 15:41 5.40673 -73.51380 36490 ft 471 kts 224°
2026-04-28 15:41 5.35935 -73.55920 36492 ft 472 kts 225°
2026-04-28 15:42 5.31200 -73.60455 36495 ft 471 kts 224°
2026-04-28 15:42 5.26442 -73.65006 36499 ft 471 kts 225°
2026-04-28 15:43 5.21682 -73.69572 36511 ft 471 kts 224°
2026-04-28 15:43 5.16924 -73.74127 36513 ft 471 kts 225°
2026-04-28 15:44 5.12173 -73.78658 36511 ft 472 kts 224°
2026-04-28 15:44 5.07411 -73.83206 36517 ft 472 kts 224°
2026-04-28 15:45 5.02639 -73.87765 36516 ft 472 kts 224°
2026-04-28 15:45 4.97870 -73.92313 36502 ft 471 kts 224°
2026-04-28 15:46 4.93131 -73.96847 36480 ft 470 kts 224°
2026-04-28 15:46 4.88366 -74.01391 36469 ft 470 kts 225°
2026-04-28 15:47 4.83621 -74.05929 36467 ft 471 kts 224°
2026-04-28 15:47 4.78841 -74.10491 36465 ft 472 kts 224°
2026-04-28 15:48 4.74079 -74.15042 36463 ft 473 kts 224°
2026-04-28 15:48 4.69311 -74.19595 36453 ft 473 kts 224°
2026-04-28 15:49 4.64534 -74.24107 36447 ft 473 kts 224°
2026-04-28 15:49 4.59766 -74.28644 36444 ft 473 kts 224°
2026-04-28 15:50 4.54987 -74.33206 36443 ft 473 kts 224°
2026-04-28 15:50 4.50224 -74.37740 36414 ft 473 kts 224°
2026-04-28 15:51 4.45432 -74.42310 36362 ft 474 kts 224°
2026-04-28 15:51 4.40632 -74.46880 36309 ft 474 kts 224°
2026-04-28 15:52 4.35882 -74.51414 36206 ft 474 kts 224°
2026-04-28 15:52 4.31078 -74.55982 36158 ft 475 kts 224°
2026-04-28 15:53 4.26281 -74.60564 36127 ft 475 kts 224°
2026-04-28 15:53 4.21456 -74.65155 36112 ft 475 kts 224°
2026-04-28 15:54 4.16659 -74.69734 36102 ft 476 kts 224°
2026-04-28 15:54 4.11877 -74.74285 36092 ft 477 kts 224°
2026-04-28 15:55 4.07059 -74.78883 36062 ft 478 kts 224°
2026-04-28 15:55 4.02226 -74.83467 36053 ft 478 kts 224°
2026-04-28 15:56 3.97383 -74.88077 36035 ft 478 kts 224°
2026-04-28 15:56 3.92566 -74.92655 36026 ft 478 kts 224°
2026-04-28 15:57 3.87717 -74.97266 36023 ft 478 kts 224°
2026-04-28 15:57 3.82858 -75.01887 36011 ft 478 kts 224°
2026-04-28 15:58 3.78021 -75.06484 36014 ft 479 kts 224°
2026-04-28 15:58 3.73207 -75.11067 36013 ft 479 kts 224°
2026-04-28 15:59 3.68368 -75.15661 36047 ft 480 kts 224°
2026-04-28 15:59 3.63521 -75.20280 36065 ft 480 kts 224°
2026-04-28 16:00 3.58661 -75.24891 36139 ft 480 kts 224°
2026-04-28 16:00 3.53843 -75.29486 36149 ft 479 kts 224°
2026-04-28 16:01 3.48976 -75.34101 36191 ft 479 kts 224°
2026-04-28 16:01 3.44158 -75.38687 36198 ft 479 kts 224°
2026-04-28 16:02 3.39306 -75.43279 36208 ft 480 kts 224°
2026-04-28 16:02 3.34431 -75.47919 36209 ft 480 kts 224°
2026-04-28 16:03 3.29581 -75.52506 36262 ft 480 kts 224°
2026-04-28 16:03 3.24778 -75.57079 36302 ft 480 kts 224°
2026-04-28 16:04 3.19922 -75.61677 36369 ft 479 kts 224°
2026-04-28 16:04 3.15061 -75.66299 36437 ft 480 kts 224°
2026-04-28 16:05 3.10212 -75.70895 36501 ft 480 kts 224°
2026-04-28 16:05 3.05332 -75.75533 36527 ft 481 kts 224°
2026-04-28 16:06 3.00477 -75.80138 36586 ft 481 kts 224°
2026-04-28 16:06 2.95626 -75.84745 36643 ft 481 kts 224°
2026-04-28 16:07 2.90751 -75.89372 36652 ft 481 kts 224°
2026-04-28 16:08 2.83441 -75.96307 36653 ft 479 kts 224°
2026-04-28 16:08 2.78601 -76.00886 36644 ft 479 kts 224°
2026-04-28 16:09 2.71348 -76.07759 36589 ft 480 kts 224°
2026-04-28 16:10 2.64060 -76.14673 36579 ft 481 kts 224°
2026-04-28 16:10 2.56771 -76.21574 36570 ft 480 kts 224°
2026-04-28 16:11 2.47051 -76.30783 36568 ft 479 kts 224°
2026-04-28 16:12 2.39777 -76.37681 36483 ft 480 kts 224°
2026-04-28 16:13 2.32500 -76.44582 36423 ft 481 kts 224°
2026-04-28 16:14 2.22762 -76.53805 36399 ft 480 kts 223°
2026-04-28 16:15 2.13018 -76.63007 36374 ft 481 kts 223°
2026-04-28 16:15 2.08153 -76.67612 36375 ft 481 kts 224°
2026-04-28 16:16 2.00848 -76.74537 36397 ft 482 kts 223°
2026-04-28 16:17 1.93537 -76.81467 36399 ft 481 kts 223°
2026-04-28 16:17 1.88652 -76.86082 36376 ft 481 kts 223°
2026-04-28 16:18 1.83781 -76.90700 36357 ft 481 kts 223°
2026-04-28 16:18 1.78905 -76.95311 36328 ft 481 kts 224°
2026-04-28 16:19 1.74044 -76.99915 36336 ft 482 kts 224°
2026-04-28 16:19 1.69164 -77.04533 36339 ft 483 kts 223°
2026-04-28 16:20 1.64283 -77.09151 36321 ft 482 kts 224°
2026-04-28 16:20 1.59400 -77.13769 36306 ft 482 kts 223°
2026-04-28 16:21 1.54514 -77.18385 36295 ft 482 kts 224°
2026-04-28 16:21 1.49654 -77.22986 36290 ft 482 kts 223°
2026-04-28 16:22 1.44740 -77.27624 36280 ft 482 kts 224°
2026-04-28 16:22 1.39866 -77.32242 36270 ft 482 kts 223°
2026-04-28 16:23 1.34979 -77.36859 36278 ft 483 kts 224°
2026-04-28 16:23 1.30091 -77.41486 36272 ft 483 kts 223°
2026-04-28 16:24 1.25213 -77.46095 36286 ft 483 kts 223°
2026-04-28 16:24 1.20309 -77.50736 36301 ft 483 kts 223°
2026-04-28 16:25 1.15423 -77.55357 36331 ft 483 kts 223°
2026-04-28 16:25 1.10528 -77.59985 36384 ft 483 kts 223°
2026-04-28 16:26 1.05615 -77.64635 36425 ft 484 kts 223°
2026-04-28 16:26 1.00712 -77.69263 36454 ft 484 kts 223°
2026-04-28 16:27 0.95820 -77.73894 36470 ft 484 kts 223°
2026-04-28 16:28 0.88463 -77.80842 36483 ft 483 kts 223°
2026-04-28 16:28 0.83576 -77.85455 36486 ft 483 kts 222°
2026-04-28 16:29 0.75730 -77.91888 35285 ft 487 kts 216°
2026-04-28 16:29 0.70309 -77.95882 33835 ft 484 kts 216°
2026-04-28 16:30 0.67593 -77.97903 33146 ft 484 kts 216°
2026-04-28 16:30 0.64909 -77.99908 32466 ft 487 kts 216°
2026-04-28 16:30 0.62162 -78.01960 31769 ft 492 kts 216°
2026-04-28 16:30 0.59386 -78.04034 31038 ft 497 kts 216°
2026-04-28 16:31 0.56620 -78.06101 30291 ft 498 kts 216°
2026-04-28 16:31 0.53841 -78.08175 29545 ft 499 kts 216°
2026-04-28 16:31 0.51059 -78.10249 28805 ft 501 kts 216°
2026-04-28 16:31 0.48267 -78.12324 28168 ft 503 kts 216°
2026-04-28 16:32 0.45414 -78.14448 27691 ft 506 kts 216°
2026-04-28 16:32 0.39747 -78.18669 26665 ft 514 kts 216°
2026-04-28 16:32 0.36861 -78.20820 26122 ft 516 kts 216°
2026-04-28 16:33 0.33968 -78.22972 25593 ft 517 kts 216°
2026-04-28 16:33 0.32060 -78.24391 25236 ft 516 kts 216°
2026-04-28 16:33 0.28249 -78.27231 24508 ft 510 kts 216°
2026-04-28 16:33 0.25397 -78.29354 23976 ft 507 kts 216°
2026-04-28 16:34 0.22597 -78.31436 23460 ft 503 kts 215°
2026-04-28 16:34 0.19795 -78.33523 22952 ft 500 kts 215°
2026-04-28 16:34 0.16985 -78.35617 22435 ft 497 kts 215°
2026-04-28 16:34 0.14229 -78.37666 21950 ft 493 kts 215°
2026-04-28 16:35 0.11456 -78.39729 21452 ft 489 kts 215°
2026-04-28 16:35 0.08737 -78.41756 20952 ft 485 kts 215°
2026-04-28 16:35 0.06033 -78.43772 20432 ft 482 kts 215°
2026-04-28 16:35 0.03360 -78.45762 19916 ft 479 kts 215°
2026-04-28 16:36 0.00665 -78.47762 19419 ft 477 kts 214°
2026-04-28 16:36 -0.02108 -78.49484 18786 ft 471 kts 203°
2026-04-28 16:36 -0.05197 -78.50538 18542 ft 464 kts 190°
2026-04-28 16:36 -0.08408 -78.50879 18198 ft 457 kts 178°
2026-04-28 16:37 -0.11566 -78.50666 17414 ft 455 kts 171°
2026-04-28 16:37 -0.14688 -78.50226 16762 ft 451 kts 170°
2026-04-28 16:37 -0.17813 -78.49867 16093 ft 442 kts 173°
2026-04-28 16:38 -0.23633 -78.49389 14625 ft 391 kts 174°
2026-04-28 16:38 -0.26260 -78.49184 14452 ft 359 kts 173°
2026-04-28 16:38 -0.28639 -78.48988 14437 ft 327 kts 173°
2026-04-28 16:38 -0.30827 -78.48792 14420 ft 299 kts 172°
2026-04-28 16:39 -0.32800 -78.48611 14429 ft 270 kts 172°
2026-04-28 16:39 -0.34588 -78.48413 14510 ft 246 kts 168°
2026-04-28 16:39 -0.36212 -78.48040 14682 ft 238 kts 160°
2026-04-28 16:39 -0.37722 -78.47411 14631 ft 227 kts 148°
2026-04-28 16:40 -0.39052 -78.46581 14641 ft 225 kts 142°
2026-04-28 16:40 -0.40269 -78.45605 14432 ft 222 kts 135°
2026-04-28 16:40 -0.41362 -78.44508 14425 ft 222 kts 129°
2026-04-28 16:40 -0.42289 -78.43295 14325 ft 222 kts 115°
2026-04-28 16:41 -0.42836 -78.41869 13978 ft 218 kts 101°
2026-04-28 16:41 -0.42740 -78.40391 13671 ft 209 kts 66°
2026-04-28 16:41 -0.41821 -78.39278 13488 ft 213 kts 34°
2026-04-28 16:41 -0.40462 -78.38651 13187 ft 219 kts 23°
2026-04-28 16:42 -0.39017 -78.38118 12832 ft 218 kts 22°
2026-04-28 16:42 -0.37601 -78.37587 12560 ft 215 kts 23°
2026-04-28 16:42 -0.36208 -78.37046 12304 ft 214 kts 24°
2026-04-28 16:42 -0.34835 -78.36506 12064 ft 214 kts 23°
2026-04-28 16:43 -0.33435 -78.35961 11813 ft 213 kts 22°
2026-04-28 16:43 -0.32037 -78.35423 11482 ft 214 kts 22°
2026-04-28 16:43 -0.30637 -78.34997 11210 ft 206 kts 13°
2026-04-28 16:43 -0.29255 -78.34816 10959 ft 196 kts
2026-04-28 16:44 -0.27914 -78.34795 10673 ft 185 kts
2026-04-28 16:44 -0.26649 -78.34835 10439 ft 179 kts
2026-04-28 16:44 -0.25373 -78.34877 10261 ft 189 kts
2026-04-28 16:44 -0.24042 -78.34950 9893 ft 191 kts 359°
2026-04-28 16:45 -0.22729 -78.35024 9645 ft 186 kts 360°
2026-04-28 16:45 -0.21452 -78.35078 9417 ft 183 kts 360°
2026-04-28 16:45 -0.20175 -78.35130 9160 ft 181 kts
2026-04-28 16:45 -0.18912 -78.35180 8932 ft 178 kts
2026-04-28 16:46 -0.17665 -78.35223 8697 ft 178 kts
2026-04-28 16:46 -0.16407 -78.35269 8421 ft 180 kts
2026-04-28 16:46 -0.15158 -78.35323 8169 ft 180 kts 360°
2026-04-28 16:46 -0.13877 -78.35379 7999 ft 184 kts 359°
2026-04-28 16:47 -0.12596 -78.35438 7975 ft 186 kts 360°
2026-04-28 16:47 -0.11305 -78.35475 8342 ft 179 kts
2026-04-28 16:47 -0.10060 -78.35476 8637 ft 178 kts
2026-04-28 16:47 -0.08841 -78.35432 8953 ft 174 kts
2026-04-28 16:48 -0.07597 -78.35360 9168 ft 187 kts
2026-04-28 16:48 -0.06280 -78.35263 9505 ft 192 kts
2026-04-28 16:48 -0.04920 -78.35139 9862 ft 198 kts
2026-04-28 16:48 -0.03476 -78.35184 10026 ft 218 kts 352°
2026-04-28 16:49 -0.01939 -78.35493 10294 ft 231 kts 350°
2026-04-28 16:49 -0.00311 -78.35792 10637 ft 244 kts 353°
2026-04-28 16:49 0.01426 -78.36002 11063 ft 253 kts 356°
2026-04-28 16:49 0.03145 -78.36507 11544 ft 260 kts 328°
2026-04-28 16:50 0.04418 -78.37786 12089 ft 263 kts 301°
2026-04-28 16:50 0.04947 -78.39526 12585 ft 268 kts 272°
2026-04-28 16:50 0.04597 -78.41314 13080 ft 269 kts 244°
2026-04-28 16:50 0.03470 -78.42786 13576 ft 269 kts 222°
2026-04-28 16:51 0.02070 -78.44057 14028 ft 273 kts 221°
2026-04-28 16:51 0.00741 -78.45430 14446 ft 278 kts 235°
2026-04-28 16:51 -0.00353 -78.46995 14940 ft 279 kts 231°
2026-04-28 16:51 -0.01590 -78.48504 15371 ft 282 kts 227°
2026-04-28 16:52 -0.02913 -78.49984 15775 ft 285 kts 222°
2026-04-28 16:52 -0.04576 -78.51000 16221 ft 278 kts 194°
2026-04-28 16:52 -0.06487 -78.51214 16617 ft 274 kts 173°
2026-04-28 16:52 -0.08379 -78.50998 16597 ft 277 kts 167°
2026-04-28 16:53 -0.10275 -78.50662 16305 ft 273 kts 166°
2026-04-28 16:53 -0.12135 -78.50338 15607 ft 274 kts 168°
2026-04-28 16:53 -0.13988 -78.50071 15295 ft 259 kts 169°
2026-04-28 16:53 -0.15722 -78.49890 14924 ft 246 kts 172°
2026-04-28 16:54 -0.17398 -78.49770 14555 ft 233 kts 173°
2026-04-28 16:54 -0.18967 -78.49670 14522 ft 219 kts 173°
2026-04-28 16:54 -0.20487 -78.49571 14599 ft 222 kts 173°
2026-04-28 16:54 -0.22099 -78.49444 14598 ft 231 kts 172°
2026-04-28 16:55 -0.23693 -78.49314 14584 ft 230 kts 172°
2026-04-28 16:55 -0.25300 -78.49179 14596 ft 231 kts 172°
2026-04-28 16:55 -0.26908 -78.49046 14619 ft 231 kts 172°
2026-04-28 16:55 -0.28519 -78.48917 14627 ft 231 kts 172°
2026-04-28 16:56 -0.30140 -78.48792 14645 ft 231 kts 173°
2026-04-28 16:56 -0.31746 -78.48669 14667 ft 231 kts 172°
2026-04-28 16:56 -0.33366 -78.48540 14676 ft 232 kts 172°
2026-04-28 16:56 -0.34967 -78.48356 14677 ft 231 kts 167°
2026-04-28 16:57 -0.36528 -78.47957 14711 ft 229 kts 157°
2026-04-28 16:57 -0.37965 -78.47290 14728 ft 227 kts 147°
2026-04-28 16:57 -0.39295 -78.46418 14739 ft 225 kts 140°
2026-04-28 16:57 -0.40497 -78.45408 14734 ft 224 kts 134°
2026-04-28 16:58 -0.41563 -78.44292 14737 ft 223 kts 128°
2026-04-28 16:58 -0.42435 -78.43013 14589 ft 224 kts 111°
2026-04-28 16:58 -0.42896 -78.41556 14230 ft 219 kts 95°
2026-04-28 16:58 -0.42627 -78.40123 13971 ft 209 kts 60°
2026-04-28 16:59 -0.41566 -78.39108 13827 ft 216 kts 29°
2026-04-28 16:59 -0.40158 -78.38522 13505 ft 221 kts 23°
2026-04-28 16:59 -0.38715 -78.37989 13150 ft 219 kts 22°
2026-04-28 16:59 -0.37277 -78.37454 12832 ft 217 kts 22°
2026-04-28 17:00 -0.35864 -78.36914 12536 ft 216 kts 23°
2026-04-28 17:00 -0.34463 -78.36370 12196 ft 215 kts 23°
2026-04-28 17:00 -0.33085 -78.35831 11692 ft 207 kts 23°
2026-04-28 17:00 -0.31782 -78.35327 11237 ft 195 kts 22°
2026-04-28 17:01 -0.30536 -78.34979 11060 ft 181 kts 11°
2026-04-28 17:01 -0.29247 -78.34843 11052 ft 188 kts
2026-04-28 17:01 -0.27902 -78.34815 10643 ft 193 kts
2026-04-28 17:01 -0.26617 -78.34859 10400 ft 182 kts 359°
2026-04-28 17:02 -0.25322 -78.34921 10162 ft 186 kts 359°
2026-04-28 17:02 -0.24028 -78.34984 9896 ft 185 kts 359°
2026-04-28 17:02 -0.22726 -78.35038 9633 ft 186 kts 360°
2026-04-28 17:02 -0.21432 -78.35085 9387 ft 186 kts 359°
2026-04-28 17:03 -0.18834 -78.35184 8876 ft 187 kts 359°
2026-04-28 17:03 -0.17522 -78.35234 8639 ft 188 kts 359°
2026-04-28 17:03 -0.16206 -78.35284 8357 ft 187 kts 360°
2026-04-28 17:04 -0.13620 -78.35392 7988 ft 185 kts 359°
2026-04-28 17:04 -0.12528 -78.35437 7939 ft 127 kts 358°
2026-04-28 17:05 -0.11834 -78.35472 7907 ft 0 kts 354°
2026-04-28 17:06 -0.11709 -78.35523 7901 ft 14 kts 329°
2026-04-28 17:06 -0.11649 -78.35562 7896 ft 11 kts 323°
2026-04-28 17:06 -0.11700 -78.35640 7895 ft 10 kts 179°
2026-04-28 17:07 -0.11759 -78.35639 7898 ft 6 kts 179°
2026-04-28 17:07 -0.11792 -78.35638 7900 ft 2 kts 178°
2026-04-28 17:07 -0.11811 -78.35638 7901 ft 4 kts 178°
2026-04-28 17:07 -0.11858 -78.35635 7903 ft 9 kts 178°
2026-04-28 17:08 -0.11978 -78.35631 7909 ft 15 kts 177°
2026-04-28 17:08 -0.12053 -78.35627 7913 ft 16 kts 177°
2026-04-28 17:08 -0.12164 -78.35622 7919 ft 15 kts 178°
2026-04-28 17:08 -0.12273 -78.35618 7924 ft 16 kts 178°
2026-04-28 17:09 -0.12351 -78.35639 7924 ft 12 kts 243°
2026-04-28 17:09 -0.12362 -78.35730 7924 ft 13 kts 266°
2026-04-28 17:09 -0.12362 -78.35805 7924 ft 8 kts 290°
2026-04-28 17:09 -0.12325 -78.35834 7924 ft 3 kts 312°
2026-04-28 17:10 -0.12316 -78.35874 7924 ft 7 kts 274°
2026-04-28 17:10 -0.12316 -78.35915 7924 ft 5 kts 268°
2026-04-28 17:10 -0.12316 -78.35927 7924 ft 0 kts 268°